weather.gov     
National Weather Service

Terminal Aerodrome Forecast
NWS Homepage
This page is being discontinued on March 12, 2014.
The same data is available at this site. Please update your bookmarks.
Thank you, and we apologize for the inconvenience.
Please send an email to SR-SRH.Webmaster@noaa.gov with any concerns.


Current Version
Previous Version:    01  02  03  04  05  06  07  08  09  10  11  12  13  14  15  16  17  18  19  20  21  22  23  24  25  26  27  28  29  
[Printable]
326
FTUS46 KOTX 300520
TAFGEG
TAF
KGEG 300520Z 3006/0106 21014KT P6SM SCT060 BKN080 OVC100
     FM300800 22014G22KT P6SM -SHRA BKN040 OVC060
     FM302200 25012KT P6SM VCSH BKN050 OVC080
     FM010200 24008KT P6SM SCT050 SCT100=




326
FTUS46 KOTX 300520
TAFGEG
TAF
KGEG 300520Z 3006/0106 21014KT P6SM SCT060 BKN080 OVC100
     FM300800 22014G22KT P6SM -SHRA BKN040 OVC060
     FM302200 25012KT P6SM VCSH BKN050 OVC080
     FM010200 24008KT P6SM SCT050 SCT100=


U.S. Dept. of Commerce
NOAA National Weather Service
1325 East West Highway
Silver Spring, MD 20910
E-mail: w-nws.webmaster@noaa.gov
Page last modified: May 16, 2007
NATIONAL WEATHER SERVICE: for Safety, for Work, for Fun - FOR LIFE